Temperature
17 17 17 17 17 17 17 17 17 17 17 17 17 17 17 17 17 17 17 17 17 17 17 17 17 17 17 17 17 17 17 17 17 17 17 18 18 18 18 18 18 18 18
17 17 17 17 17 17 17 17 17 17 17 17 17 17 17 17 17 17 17 17 17 17 17 17 17 17 17 17 17 17 17 17 17 17 17 17 17 18 18 18 18 18 18
17 17 17 17 17 17 17 17 17 17 17 17 17 17 17 16 17 17 16 16 16 16 16 16 16 16 17 17 17 17 17 17 17 17 17 17 17 17 17 18 18 18 18
17 17 17 17 17 17 17 17 17 17 17 16 16 16 16 16 16 16 16 16 16 16 16 16 16 16 16 17 17 17 17 17 17 17 17 17 17 17 17 17 18 18 18
17 17 17 17 17 17 17 17 17 16 16 16 16 16 16 16 16 16 16 16 16 16 16 16 16 16 16 16 17 17 17 17 17 17 17 17 17 17 17 17 17 17 17
17 17 17 17 17 17 16 16 16 16 16 16 16 16 16 16 16 15 15 15 15 16 16 16 16 16 16 16 16 16 16 17 17 17 17 17 17 17 17 17 17 17 17
17 17 17 17 16 16 16 16 16 16 16 16 16 16 16 16 16 15 15 15 15 15 16 16 16 16 16 16 16 16 16 16 17 17 17 17 17 17 17 17 17 17 17
17 17 16 16 16 16 16 16 16 16 16 16 16 16 15 15 15 15 15 15 15 15 16 16 16 16 16 16 16 16 16 16 17 17 17 17 17 17 17 17 17 17 17
17 16 16 16 16 16 16 16 16 16 16 16 15 15 15 15 15 15 15 15 15 15 16 16 16 16 16 16 16 16 16 16 16 17 17 17 17 17 17 17 17 17 17
16 16 16 16 16 16 16 16 16 16 15 15 15 15 15 15 15 15 15 15 15 15 15 16 16 16 16 16 16 16 16 16 16 16 16 16 16 17 17 17 17 17 17
16 16 16 16 16 16 16 16 16 16 16 16 15 15 15 15 15 15 15 15 15 15 15 16 16 16 16 16 16 16 16 16 16 16 16 16 16 16 16 17 17 17 17
17 16 16 16 16 16 16 16 16 16 16 16 15 15 15 15 15 15 15 15 15 15 15 16 16 16 16 16 16 16 16 16 16 16 16 16 16 16 16 16 16 17 17
17 16 16 16 16 16 16 16 16 16 16 16 16 15 15 15 15 15 15 16 15 15 15 15 16 16 16 16 16 16 16 16 16 16 16 16 16 16 16 16 16 16 17
17 17 16 16 16 16 16 16 16 16 16 16 16 15 15 15 15 15 15 15 15 15 15 16 16 16 16 16 16 16 16 16 16 16 16 16 16 16 16 16 16 16 16
17 17 16 16 16 16 16 16 16 16 16 16 15 15 15 15 15 15 15 15 15 15 15 15 16 16 16 16 16 16 16 16 16 15 15 15 16 16 16 16 16 16 16
17 17 16 16 16 16 16 16 16 16 16 16 15 15 15 15 15 15 15 15 15 15 15 15 15 15 15 15 15 15 15 15 15 15 15 15 15 15 16 16 16 16 16
17 17 16 16 16 16 16 16 16 16 16 16 15 15 15 15 15 15 15 15 15 15 15 15 15 15 15 15 15 15 15 15 15 15 15 15 15 15 15 15 16 16 16
17 17 17 16 16 16 16 16 16 16 16 16 15 15 15 15 15 15 15 15 15 15 15 15 15 15 15 15 15 15 15 15 15 15 15 15 15 15 15 15 15 15 16
17 17 17 16 16 16 16 16 16 16 15 15 15 15 15 15 15 15 15 15 15 15 15 15 15 15 15 15 15 15 15 15 15 15 15 15 15 15 15 15 15 15 15
17 17 17 17 16 16 16 16 16 16 15 15 15 15 15 15 15 15 15 15 15 15 15 15 15 15 15 15 15 15 15 15 15 15 15 15 15 15 15 15 15 15 15
17 17 17 17 16 16 16 16 16 15 15 15 15 15 15 15 15 15 15 15 15 15 15 15 15 15 15 15 15 14 14 14 14 14 14 14 15 14 15 15 15 15 15
17 17 17 17 17 16 16 16 16 15 15 15 15 15 15 15 15 15 15 15 15 15 15 15 15 15 15 15 15 15 14 14 14 14 14 14 14 14 14 14 14 14 14
17 17 17 17 17 16 16 16 16 15 15 15 15 15 15 15 15 15 15 15 15 15 15 15 15 15 15 15 15 15 15 14 13 13 13 14 14 14 14 14 14 14 14
17 17 17 17 17 16 16 16 16 16 15 15 15 15 15 15 15 15 15 15 15 15 15 15 15 15 15 15 15 15 14 14 14 13 13 13 13 13 13 14 14 14 14
18 17 17 17 17 16 16 16 16 16 16 15 15 15 15 15 15 14 14 15 15 15 14 15 15 15 15 14 14 14 14 14 14 14 13 13 13 13 13 13 13 13 14
18 17 17 17 17 16 16 16 16 16 16 15 15 15 15 15 14 14 14 14 14 14 14 14 14 14 14 14 14 14 14 14 14 14 13 13 13 13 13 13 13 13 13
Wind_Speed
1 1 5 9 11 12 13 14 14 14 14 14 14 13 13 13 12 12 11 10 10 9 9 9 9 9 8 8 8 7 7 7 7 6 6 6 5 5 4 5 4 3 3
1 3 7 10 12 13 14 14 14 14 14 14 13 13 12 12 11 11 10 10 9 9 9 8 8 8 7 7 6 6 6 7 6 6 6 6 5 5 4 4 4 3 3
4 6 8 11 12 13 13 13 13 13 13 13 12 12 12 11 10 10 9 9 9 9 9 8 8 8 7 7 6 6 6 6 6 6 6 6 5 4 4 3 4 4 4
6 7 8 11 12 12 13 13 13 13 12 12 11 11 10 10 10 10 9 9 8 8 8 8 7 7 7 7 6 6 6 5 6 6 6 5 4 4 4 4 4 3 3
6 7 8 11 11 12 12 13 12 12 12 11 11 10 10 9 9 9 9 8 8 8 8 8 7 7 7 6 6 6 6 6 6 7 6 5 4 4 3 3 3 2 3
6 7 8 10 11 11 12 12 12 11 10 10 10 9 9 9 8 8 8 8 8 7 7 7 7 7 7 6 6 6 6 6 6 5 5 5 4 4 3 3 2 2 3
5 6 8 10 11 11 11 11 10 9 9 9 9 8 8 8 7 7 7 7 7 6 7 7 7 7 7 7 6 5 6 5 6 5 4 4 4 4 3 3 3 3 3
5 5 7 9 10 10 10 9 9 9 8 8 8 7 7 7 7 7 7 6 6 6 6 7 7 7 7 7 6 6 6 5 5 4 4 4 4 4 4 4 4 4 3
5 5 6 7 8 8 8 8 8 8 7 7 7 7 7 7 7 7 7 7 7 7 7 7 7 7 7 6 6 6 6 6 6 4 4 4 4 4 4 4 4 4 4
4 4 4 6 7 7 7 7 7 8 8 8 8 8 8 8 9 9 9 8 8 7 7 7 7 7 8 7 7 6 7 7 6 5 5 5 5 5 5 4 4 5 5
3 3 3 4 5 6 6 7 8 9 9 9 9 9 9 8 8 9 9 9 9 8 8 8 8 8 8 8 7 7 8 7 6 6 5 5 6 6 6 6 5 5 5
1 1 2 2 3 4 5 6 8 8 8 9 9 8 8 8 8 8 10 11 11 10 10 10 10 9 9 8 8 8 7 7 6 6 6 6 7 7 7 7 6 6 6
2 1 1 2 3 3 4 5 6 6 7 8 8 8 8 9 9 9 9 10 10 10 10 10 10 9 9 7 7 7 7 7 7 7 7 8 8 7 8 8 7 6 6
2 1 2 3 3 3 4 4 4 5 6 6 7 8 7 6 6 6 7 7 8 8 7 8 7 8 9 9 8 7 7 7 7 7 9 10 10 9 9 8 8 8 8
3 1 1 3 3 3 4 3 4 4 5 6 7 8 7 5 4 4 5 7 7 7 6 6 6 6 7 7 8 7 7 7 8 9 9 12 12 11 11 10 10 10 10
3 2 2 3 4 4 3 3 3 4 5 7 7 7 7 6 5 4 4 5 6 7 6 6 6 5 5 5 6 7 7 8 9 10 10 12 14 13 12 12 12 12 11
4 3 3 4 4 5 4 4 5 5 6 6 7 8 8 7 6 5 4 4 5 7 7 7 7 6 5 6 6 7 7 8 9 10 11 11 12 14 14 14 14 13 13
5 4 3 5 5 5 5 5 6 6 7 6 7 8 8 8 8 7 4 4 6 7 6 4 4 5 5 5 6 6 6 7 9 11 11 12 12 12 13 15 15 15 15
5 5 4 5 6 5 5 6 7 7 7 7 8 8 8 8 9 8 5 5 6 6 5 4 4 4 4 5 5 6 6 6 7 10 10 12 12 12 12 14 15 16 16
5 5 5 5 6 5 4 4 4 5 5 8 8 8 8 8 9 8 6 7 7 5 5 4 5 5 4 4 6 7 6 6 7 8 8 10 12 12 13 14 13 13 16
4 5 5 5 4 4 3 3 3 2 2 3 6 8 8 9 9 8 6 6 6 5 4 4 3 5 5 3 4 4 5 6 8 7 7 8 10 12 13 14 13 13 13
5 5 4 5 5 3 3 2 2 2 2 2 3 7 9 8 8 7 6 4 4 4 6 5 4 3 4 4 3 3 3 5 5 7 6 7 7 10 11 13 13 13 13
5 6 5 4 4 3 4 4 3 3 3 3 3 3 6 7 8 8 7 6 5 4 4 4 4 4 3 4 4 3 4 1 2 4 5 6 6 6 7 10 12 13 13
6 5 5 5 4 4 5 5 4 3 1 0 1 1 3 6 7 7 8 7 6 4 4 4 4 3 3 3 3 4 3 3 3 2 3 4 6 7 6 8 10 12 13
6 5 5 4 4 4 4 5 5 3 2 1 1 2 3 4 6 6 7 7 6 5 4 5 5 5 3 3 2 2 3 4 3 3 1 3 4 4 4 6 7 10 12
5 5 5 5 4 3 4 4 5 5 4 3 1 1 2 2 3 5 6 6 5 5 4 5 5 6 5 5 4 3 2 2 2 3 2 1 2 3 3 5 7 9 10
Wind_Direction
349 357 92 93 92 92 92 92 91 90 90 89 89 88 86 84 82 79 77 76 76 73 69 68 68 69 68 69 66 63 64 63 63 67 63 60 60 63 70 78 85 88 87
123 98 99 97 95 93 93 93 92 90 89 88 87 85 83 83 81 78 74 72 71 71 67 65 66 66 64 65 64 62 64 63 60 59 55 49 49 52 62 77 85 88 77
102 99 99 99 96 93 93 92 90 88 87 86 84 82 80 79 78 77 74 71 68 66 63 60 59 58 57 56 55 55 59 59 54 53 50 39 34 46 54 57 63 74 66
103 97 99 99 96 93 91 90 88 85 83 82 81 80 79 76 75 74 72 69 65 61 57 53 53 51 48 48 48 48 52 54 49 50 44 32 25 42 48 53 54 56 59
91 91 99 97 95 93 91 90 89 87 82 78 75 73 71 71 71 70 67 64 62 57 53 48 45 43 41 44 46 45 50 55 51 49 41 27 16 26 39 51 59 51 52
87 89 100 98 95 94 91 88 87 84 81 76 73 71 69 67 66 64 61 57 55 51 47 42 39 39 39 41 45 45 52 57 51 47 35 19 9 20 28 42 58 56 55
92 90 100 99 96 93 90 88 85 82 77 73 69 65 62 58 56 55 52 49 46 44 40 37 36 37 37 37 39 45 50 56 54 42 26 9 9 25 29 32 45 56 56
98 82 85 96 95 91 88 84 80 75 71 66 61 56 50 44 42 42 41 39 35 33 34 36 36 34 33 34 43 47 48 49 46 35 16 2 9 25 26 30 41 53 54
84 74 62 68 74 80 82 78 74 68 63 57 51 46 40 33 30 31 31 30 29 31 35 37 36 35 33 36 45 52 54 55 49 27 13 2 14 25 31 39 52 58 55
74 69 62 59 58 54 55 65 66 60 54 50 45 41 36 29 24 22 21 20 23 29 37 38 39 40 40 42 51 60 59 52 42 24 7 5 23 37 49 58 63 61 58
80 60 67 55 48 46 44 51 49 45 43 43 37 35 37 31 23 17 18 21 25 34 42 44 47 46 46 46 54 60 56 48 39 22 3 11 32 48 53 63 66 64 59
140 107 86 69 51 43 46 47 42 41 42 42 35 33 37 35 28 26 23 27 31 39 45 44 50 50 50 51 54 59 55 46 37 20 11 26 39 52 56 61 65 64 57
166 156 126 97 70 63 56 51 45 44 45 42 38 38 44 42 35 31 30 27 29 36 39 39 43 44 49 55 58 58 54 46 35 25 19 31 42 54 57 58 59 58 53
141 158 124 108 92 77 74 66 54 49 48 43 40 45 50 41 34 28 30 28 32 34 38 38 40 45 52 56 60 57 50 43 36 28 26 34 40 47 53 55 55 53 53
145 143 101 110 108 96 82 72 63 51 50 50 48 46 54 54 37 32 31 33 35 40 44 41 40 45 48 51 56 55 45 39 38 38 32 37 41 44 49 54 57 56 56
153 143 100 104 115 109 92 77 64 58 57 58 53 48 53 58 55 48 38 34 33 38 48 53 50 51 49 53 50 48 45 41 41 42 42 40 41 43 45 48 54 58 57
147 136 125 120 106 104 93 78 70 60 62 59 53 53 56 56 56 57 47 35 27 40 55 58 51 52 54 53 44 41 43 42 42 43 44 41 39 40 43 47 51 53 54
142 135 132 119 104 96 88 78 71 63 61 54 55 57 56 57 62 62 52 32 30 47 53 58 47 57 52 54 51 41 41 40 41 45 46 43 40 38 41 47 49 49 49
145 137 119 111 109 100 87 77 69 63 55 49 51 53 55 58 61 64 54 37 43 53 45 56 53 62 63 61 65 52 42 42 38 45 45 43 43 42 43 45 47 47 46
136 129 125 113 108 102 87 72 59 50 43 44 44 46 54 57 59 62 55 40 49 55 44 51 63 57 59 57 73 62 47 42 43 42 40 42 43 45 46 45 43 42 43
133 129 134 130 126 117 98 88 76 51 26 29 36 44 50 56 58 61 56 45 45 56 53 56 72 65 47 31 71 53 35 40 43 37 36 40 39 41 46 46 44 44 40
157 149 146 150 150 144 119 115 113 105 64 38 30 40 40 50 55 60 58 53 47 57 52 46 58 79 49 32 82 87 41 18 19 27 31 39 34 37 42 44 43 42 40
172 172 167 168 162 149 127 106 82 59 41 29 19 15 20 46 57 61 61 63 55 60 61 50 54 83 82 41 47 106 117 125 5 7 23 34 33 34 32 37 39 37 37
189 175 165 164 161 153 144 139 134 126 116 359 346 10 22 44 55 61 64 64 60 57 60 54 58 69 93 73 46 46 82 129 118 55 3 13 30 36 28 32 33 34 33
179 169 164 154 155 157 154 151 136 127 133 103 55 52 31 29 44 55 63 65 61 57 57 57 59 61 70 86 80 72 67 60 70 110 69 354 9 14 20 23 28 30 29
168 162 160 156 162 163 158 154 153 152 152 135 109 78 32 18 23 42 61 64 65 63 61 61 65 67 68 75 72 70 88 95 88 100 113 50 2 340 357 14 23 21 23
Height
1530 1531 1531 1531 1532 1532 1532 1533 1533 1533 1534 1534 1534 1534 1534 1534 1534 1534 1534 1535 1534 1534 1534 1534 1534 1534 1534 1534 1534 1535 1535 1535 1535 1535 1535 1535 1535 1535 1535 1535 1535 1535 1535
1531 1532 1532 1533 1533 1533 1534 1534 1534 1534 1535 1535 1535 1535 1535 1535 1535 1535 1535 1535 1535 1535 1535 1535 1535 1535 1535 1535 1535 1535 1535 1535 1536 1536 1536 1535 1535 1535 1535 1535 1535 1535 1536
1532 1533 1533 1534 1534 1535 1535 1535 1535 1536 1536 1536 1536 1536 1536 1536 1536 1536 1536 1536 1536 1536 1536 1536 1535 1535 1535 1536 1536 1536 1536 1536 1536 1536 1536 1536 1536 1536 1536 1536 1536 1536 1536
1533 1534 1535 1535 1536 1536 1536 1536 1536 1537 1537 1537 1537 1537 1537 1537 1537 1537 1537 1536 1536 1536 1536 1536 1536 1536 1536 1536 1536 1537 1537 1537 1537 1537 1537 1537 1537 1537 1536 1536 1536 1536 1536
1535 1536 1536 1537 1537 1537 1538 1538 1538 1538 1539 1539 1539 1539 1538 1538 1538 1538 1538 1537 1537 1537 1537 1537 1537 1537 1537 1537 1537 1537 1538 1537 1538 1538 1538 1537 1537 1537 1537 1537 1537 1537 1537
1536 1537 1538 1538 1539 1539 1539 1540 1540 1540 1540 1540 1540 1540 1540 1539 1539 1539 1539 1539 1538 1538 1538 1538 1538 1537 1537 1538 1538 1538 1538 1538 1538 1538 1538 1538 1538 1538 1537 1537 1537 1537 1537
1538 1539 1540 1540 1541 1541 1541 1541 1542 1542 1542 1542 1542 1541 1541 1541 1541 1540 1540 1540 1540 1539 1539 1539 1538 1538 1538 1538 1539 1539 1539 1539 1539 1539 1539 1539 1538 1538 1538 1538 1538 1537 1537
1541 1541 1542 1542 1543 1543 1543 1544 1544 1544 1544 1544 1543 1543 1543 1542 1542 1541 1541 1541 1541 1540 1540 1540 1539 1539 1539 1539 1539 1540 1540 1540 1540 1539 1539 1539 1539 1538 1538 1538 1538 1538 1538
1543 1543 1544 1545 1545 1545 1546 1546 1546 1546 1546 1545 1545 1545 1544 1544 1543 1543 1542 1542 1542 1541 1541 1541 1540 1540 1540 1540 1540 1541 1541 1541 1540 1540 1540 1539 1539 1539 1538 1538 1538 1538 1538
1545 1546 1546 1547 1547 1547 1548 1548 1548 1548 1547 1547 1547 1546 1546 1545 1545 1544 1544 1543 1543 1542 1542 1542 1541 1541 1541 1541 1541 1541 1542 1542 1541 1541 1540 1540 1540 1539 1539 1538 1538 1538 1539
1547 1548 1548 1549 1549 1550 1550 1550 1550 1550 1549 1549 1548 1548 1547 1547 1546 1546 1545 1544 1544 1544 1543 1543 1543 1543 1543 1542 1542 1542 1543 1542 1542 1542 1541 1541 1540 1539 1539 1539 1539 1539 1539
1548 1550 1550 1551 1551 1552 1552 1552 1551 1551 1551 1551 1550 1550 1549 1548 1548 1547 1546 1546 1545 1545 1545 1544 1544 1544 1544 1544 1544 1544 1544 1544 1543 1543 1542 1542 1541 1541 1540 1540 1540 1540 1540
1550 1551 1552 1553 1553 1553 1553 1553 1553 1553 1552 1552 1551 1551 1550 1550 1549 1548 1548 1547 1546 1546 1546 1546 1546 1546 1546 1545 1545 1545 1545 1545 1545 1544 1544 1543 1542 1542 1541 1541 1541 1541 1541
1552 1553 1553 1554 1554 1555 1555 1555 1555 1554 1554 1553 1553 1552 1552 1551 1550 1550 1549 1548 1548 1547 1547 1547 1547 1547 1547 1547 1547 1547 1547 1546 1546 1546 1545 1544 1544 1543 1543 1542 1542 1542 1542
1553 1554 1555 1555 1556 1556 1556 1556 1556 1556 1555 1555 1554 1554 1553 1552 1552 1551 1550 1549 1549 1549 1548 1548 1548 1548 1548 1548 1548 1548 1548 1548 1548 1547 1546 1546 1545 1544 1544 1544 1543 1543 1543
1554 1555 1556 1556 1557 1557 1557 1557 1557 1557 1556 1556 1555 1555 1554 1553 1553 1552 1551 1550 1550 1550 1549 1549 1549 1549 1550 1550 1550 1550 1550 1550 1549 1549 1548 1547 1547 1546 1546 1545 1545 1545 1544
1555 1556 1557 1558 1558 1559 1559 1559 1558 1558 1558 1557 1557 1556 1555 1554 1554 1553 1552 1551 1551 1550 1550 1550 1550 1551 1551 1551 1551 1551 1551 1551 1551 1550 1550 1549 1549 1548 1548 1547 1546 1546 1546
1557 1558 1558 1559 1559 1560 1560 1560 1559 1559 1559 1558 1558 1557 1556 1555 1554 1554 1553 1552 1552 1551 1551 1551 1551 1552 1552 1552 1552 1553 1553 1552 1552 1552 1551 1551 1550 1550 1549 1549 1548 1548 1547
1557 1558 1559 1560 1560 1561 1561 1561 1561 1560 1560 1560 1559 1558 1557 1556 1555 1555 1554 1553 1552 1552 1552 1552 1552 1553 1553 1553 1554 1554 1554 1554 1554 1553 1553 1553 1552 1552 1551 1551 1550 1549 1549
1558 1559 1560 1561 1561 1562 1562 1562 1562 1562 1561 1561 1560 1559 1559 1557 1556 1556 1555 1554 1553 1553 1553 1553 1554 1554 1554 1555 1555 1555 1556 1556 1555 1555 1554 1554 1554 1553 1553 1552 1552 1551 1550
1559 1560 1561 1562 1562 1563 1563 1563 1563 1562 1562 1562 1561 1560 1560 1559 1558 1557 1556 1555 1555 1554 1554 1554 1555 1555 1555 1556 1556 1557 1557 1557 1557 1556 1556 1556 1555 1555 1554 1554 1553 1552 1552
1559 1560 1561 1562 1563 1563 1564 1564 1564 1563 1563 1563 1562 1562 1561 1560 1559 1558 1557 1556 1556 1555 1555 1555 1555 1556 1556 1557 1557 1557 1558 1560 1558 1558 1558 1557 1557 1556 1556 1555 1554 1554 1553
1559 1560 1562 1563 1563 1564 1564 1564 1564 1564 1564 1563 1563 1562 1562 1561 1560 1559 1559 1558 1557 1557 1556 1556 1556 1557 1557 1558 1558 1559 1559 1559 1560 1560 1559 1559 1558 1558 1557 1557 1556 1555 1554
1559 1561 1562 1563 1564 1564 1564 1565 1565 1565 1564 1564 1564 1563 1563 1562 1561 1561 1560 1559 1559 1558 1557 1557 1557 1557 1558 1558 1558 1558 1559 1559 1560 1561 1561 1560 1560 1559 1559 1558 1557 1556 1555
1558 1560 1562 1563 1563 1564 1565 1565 1565 1565 1565 1565 1564 1564 1563 1563 1562 1562 1561 1561 1560 1559 1559 1558 1558 1558 1558 1559 1559 1559 1559 1560 1560 1560 1561 1562 1561 1561 1560 1559 1558 1558 1557
1557 1559 1560 1562 1563 1564 1564 1565 1565 1565 1565 1565 1564 1564 1564 1564 1563 1563 1562 1562 1561 1561 1560 1560 1559 1559 1559 1559 1560 1560 1560 1560 1560 1561 1561 1561 1562 1562 1561 1560 1560 1559 1558